User: anonymous   Login
Location: Unspecified
(0.0000°N, 0.0000°E)
Time: 04:29:57
(UTC+02:00)
Language:

Milstar 3 - Orbit

View from above orbital plane
View from above orbital plane
View from above satellite
View from above satellite

Ground track
Ground track

The orbit data is extracted from the following two-line orbital elements,

1 25724U 99023A   15179.31072179 0.00000000  00000-0  00000-0 0    09
2 25724  28.2296 208.6289 2134299  27.7922 332.2073  9.37472015    03
Epoch (UTC): 28 June 2015 07:27:26
Eccentricity: 0.2134299
inclination: 28.2296°
perigee height: 1095 km
apogee height: 5150 km
right ascension of ascending node: 208.6289°
argument of perigee: 27.7922°
revolutions per day: 9.37472015
mean anomaly at epoch: 332.2073°
orbit number at epoch: 0

The dashed part of the orbit path shows where the satellite is in the earth's shadow,  

DLR